Location: Burland Observatory
(39.4088°N, 105.4217°W)
Time: 13:47:16
(UTC-07:00)

Transit 2A Rocket - All Passes

Search period start: 14 December 2019 00:00
Search period end: 24 December 2019 00:00
Orbit: 594 x 909 km, 66.7° (Epoch: 14 December)

Date Brightness Start Highest point End Pass type
(mag) Time Alt. Az. Time Alt. Az. Time Alt. Az.
14 Dec - 00:10:42 10° NNW 00:15:07 53° ENE 00:19:52 10° SE night (unlit)
14 Dec - 01:54:31 10° WNW 01:57:17 16° WSW 02:00:10 10° SW night (unlit)
14 Dec - 14:44:47 10° S 14:49:13 48° ESE 14:53:25 10° NE daylight
14 Dec - 16:28:54 10° W 16:31:57 18° NW 16:34:57 10° N daylight
14 Dec - 23:28:30 10° N 23:32:29 30° NE 23:36:42 10° ESE night (unlit)
15 Dec - 01:10:59 10° NW 01:14:57 29° WSW 01:19:10 10° S night (unlit)
15 Dec - 14:03:05 10° SSE 14:06:50 25° ESE 14:10:25 10° NE daylight
15 Dec - 15:45:13 10° WSW 15:49:13 30° NW 15:53:04 10° N daylight
15 Dec - 22:46:39 10° N 22:49:45 18° NE 22:52:57 10° E night (unlit)
16 Dec - 00:28:04 10° NW 00:32:32 54° WSW 00:37:21 10° SSE night (unlit)
16 Dec - 13:22:26 10° SE 13:24:32 13° ESE 13:26:34 10° E daylight
16 Dec - 15:02:07 10° SW 15:06:36 56° WNW 15:10:52 10° NNE daylight
16 Dec - 22:05:50 10° NNE 22:06:52 11° NE 22:07:54 10° ENE night (unlit)
16 Dec - 23:45:29 10° NNW 23:50:02 80° ENE 23:54:58 10° SSE night (unlit)
17 Dec - 01:31:46 10° WSW 01:32:02 10° WSW 01:32:18 10° WSW night (unlit)
17 Dec - 14:19:30 10° SSW 14:24:05 75° ESE 14:28:25 10° NNE daylight
17 Dec - 16:05:08 10° WNW 16:07:04 13° NW 16:08:59 10° NNW daylight
17 Dec - 23:03:08 10° NNW 23:07:28 43° ENE 23:12:07 10° SE night (unlit)
18 Dec - 00:46:24 10° WNW 00:49:45 20° WSW 00:53:16 10° SSW night (unlit)
18 Dec - 13:37:24 10° S 13:41:38 38° ESE 13:45:40 10° NE daylight
18 Dec - 15:20:49 10° W 15:24:15 21° NW 15:27:35 10° N daylight
18 Dec - 22:21:03 10° N 22:24:48 25° NE 22:28:47 10° ESE night (unlit)
19 Dec - 00:03:09 10° NW 00:07:22 36° WSW 00:11:54 10° S night (unlit)
19 Dec - 12:55:58 10° SSE 12:59:16 20° ESE 13:02:28 10° ENE daylight
19 Dec - 14:37:22 10° SW 14:41:32 37° NW 14:45:34 10° NNE daylight
19 Dec - 21:39:21 10° N 21:42:01 15° NE 21:44:46 10° E night (unlit)
19 Dec - 23:20:22 10° NW 23:24:56 68° WSW 23:29:53 10° SSE night (unlit)
20 Dec - 13:54:27 10° SW 13:58:57 71° WNW 14:03:17 10° NNE daylight
20 Dec - 22:37:52 10° NNW 22:42:25 65° ENE 22:47:20 10° SE night (unlit)
21 Dec - 00:22:19 10° W 00:24:30 13° WSW 00:26:47 10° SW night (unlit)
21 Dec - 13:11:59 10° SSW 13:16:27 59° ESE 13:20:44 10° NE daylight
21 Dec - 14:56:46 10° W 14:59:20 15° NW 15:01:52 10° N daylight
21 Dec - 21:55:36 10° NNW 21:59:49 36° NE 22:04:19 10° ESE night (unlit)
21 Dec - 23:38:25 10° WNW 23:42:12 24° WSW 23:46:12 10° SSW night (unlit)
22 Dec - 12:30:06 10° S 12:34:03 30° ESE 12:37:51 10° NE daylight
22 Dec - 14:12:49 10° WSW 14:16:32 25° NW 14:20:09 10° N daylight
22 Dec - 21:13:37 10° N 21:17:07 21° NE 21:20:47 10° E night (unlit)
22 Dec - 22:55:23 10° NW 22:59:47 45° WSW 23:04:34 10° S night (unlit)
23 Dec - 11:49:00 10° SE 11:51:44 16° ESE 11:54:22 10° ENE daylight
23 Dec - 13:29:34 10° SW 13:33:52 46° WNW 13:38:02 10° NNE daylight
23 Dec - 20:32:11 10° NNE 20:34:16 13° NE 20:36:25 10° ENE night (unlit)
23 Dec - 22:12:42 10° NNW 22:17:19 85° WSW 22:22:21 10° SSE night (unlit)
